RUDE1 KTOL-KCRW

Flight info

Callsign RUDE1
Flight time 0h 37m
Altitude 33000
Route MAYZE KLYNE LARIC LAYED
Aircraft CL60/M-SBDE1E2E3FGHIJ1J4J5J7M3RWXYZ/LB1V1D1

Departure

Time 2026-05-06 01:49
Airport Eugene F. Kranz Toledo Express Airport (KTOL)

Arrival

Time 2026-05-06 02:26
Airport Yeager Airport (KCRW)
Time Latitude Longitude Altitude Speed Heading
2026-05-06 01:15 41.58960 -83.81314 684 ft 0 kts 68°
2026-05-06 01:42 41.58963 -83.81303 684 ft 3 kts 79°
2026-05-06 01:42 41.58965 -83.81247 684 ft 8 kts 89°
2026-05-06 01:42 41.58968 -83.81153 683 ft 6 kts 79°
2026-05-06 01:42 41.58968 -83.81151 683 ft 0 kts 79°
2026-05-06 01:43 41.58968 -83.81149 683 ft 0 kts 79°
2026-05-06 01:43 41.58969 -83.81140 683 ft 4 kts 84°
2026-05-06 01:43 41.58968 -83.81072 683 ft 10 kts 90°
2026-05-06 01:43 41.58984 -83.80961 682 ft 14 kts 67°
2026-05-06 01:44 41.59028 -83.80821 681 ft 18 kts 67°
2026-05-06 01:44 41.59084 -83.80649 680 ft 21 kts 67°
2026-05-06 01:44 41.59141 -83.80463 678 ft 23 kts 67°
2026-05-06 01:44 41.59208 -83.80255 677 ft 22 kts 67°
2026-05-06 01:45 41.59261 -83.80085 675 ft 17 kts 67°
2026-05-06 01:45 41.59290 -83.79991 675 ft 10 kts 67°
2026-05-06 01:45 41.59327 -83.79874 674 ft 15 kts 66°
2026-05-06 01:45 41.59376 -83.79720 672 ft 20 kts 67°
2026-05-06 01:46 41.59412 -83.79602 671 ft 0 kts 85°
2026-05-06 01:46 41.59404 -83.79588 671 ft 2 kts 157°
2026-05-06 01:46 41.59369 -83.79571 671 ft 7 kts 158°
2026-05-06 01:46 41.59347 -83.79559 671 ft 0 kts 157°
2026-05-06 01:47 41.59346 -83.79559 671 ft 0 kts 157°
2026-05-06 01:48 41.59339 -83.79554 670 ft 2 kts 157°
2026-05-06 01:48 41.59305 -83.79535 670 ft 7 kts 157°
2026-05-06 01:48 41.59253 -83.79543 670 ft 9 kts 243°
2026-05-06 01:48 41.59157 -83.79848 673 ft 86 kts 247°
2026-05-06 01:49 41.58806 -83.80950 1043 ft 147 kts 247°
2026-05-06 01:49 41.58392 -83.82157 2167 ft 153 kts 248°
2026-05-06 01:49 41.57924 -83.83469 3235 ft 170 kts 248°
2026-05-06 01:49 41.57110 -83.84634 4402 ft 190 kts 213°
2026-05-06 01:50 41.55783 -83.85010 5489 ft 215 kts 187°
2026-05-06 01:50 41.54223 -83.84756 6497 ft 251 kts 159°
2026-05-06 01:50 41.52840 -83.83232 7634 ft 279 kts 130°
2026-05-06 01:50 41.51690 -83.81084 8950 ft 292 kts 129°
2026-05-06 01:51 41.50838 -83.79461 9984 ft 297 kts 130°
2026-05-06 01:51 41.49638 -83.77200 11178 ft 312 kts 131°
2026-05-06 01:51 41.48297 -83.74741 11751 ft 345 kts 131°
2026-05-06 01:51 41.46838 -83.72078 12526 ft 367 kts 131°
2026-05-06 01:52 41.45305 -83.69280 13518 ft 378 kts 132°
2026-05-06 01:52 41.43489 -83.66740 14552 ft 376 kts 149°
2026-05-06 01:52 41.41236 -83.65134 15644 ft 370 kts 166°
2026-05-06 01:52 41.38821 -83.63975 16685 ft 374 kts 167°
2026-05-06 01:53 41.36347 -83.62798 17699 ft 378 kts 167°
2026-05-06 01:53 41.33873 -83.61616 18572 ft 385 kts 167°
2026-05-06 01:53 41.31330 -83.60403 19377 ft 392 kts 168°
2026-05-06 01:53 41.28743 -83.59169 20182 ft 397 kts 167°
2026-05-06 01:54 41.26128 -83.57917 21054 ft 400 kts 168°
2026-05-06 01:54 41.23521 -83.56670 22036 ft 397 kts 168°
2026-05-06 01:54 41.20957 -83.55441 23158 ft 391 kts 168°
2026-05-06 01:54 41.18404 -83.54223 24130 ft 389 kts 169°
2026-05-06 01:55 41.15842 -83.53005 24843 ft 394 kts 168°
2026-05-06 01:55 41.13248 -83.51775 25404 ft 403 kts 169°
2026-05-06 01:55 41.10536 -83.50495 25710 ft 418 kts 169°
2026-05-06 01:55 41.07759 -83.49181 26098 ft 428 kts 168°
2026-05-06 01:56 41.04949 -83.47848 26618 ft 434 kts 168°
2026-05-06 01:56 41.02067 -83.46476 27382 ft 432 kts 168°
2026-05-06 01:56 40.99238 -83.45127 28267 ft 428 kts 169°
2026-05-06 01:56 40.96431 -83.43793 28981 ft 428 kts 169°
2026-05-06 01:57 40.93612 -83.42458 29629 ft 429 kts 169°
2026-05-06 01:57 40.90776 -83.41118 30219 ft 431 kts 169°
2026-05-06 01:57 40.87938 -83.39779 30594 ft 437 kts 169°
2026-05-06 01:57 40.85007 -83.38402 30834 ft 446 kts 170°
2026-05-06 01:58 40.82034 -83.37005 31027 ft 456 kts 169°
2026-05-06 01:58 40.78997 -83.35575 31428 ft 459 kts 170°
2026-05-06 01:58 40.75983 -83.34156 31770 ft 463 kts 171°
2026-05-06 01:58 40.72902 -83.32703 32165 ft 466 kts 171°
2026-05-06 01:59 40.69862 -83.31002 32461 ft 480 kts 163°
2026-05-06 01:59 40.66945 -83.28753 32687 ft 495 kts 156°
2026-05-06 01:59 40.64035 -83.26239 32851 ft 501 kts 156°
2026-05-06 01:59 40.61090 -83.23703 32850 ft 512 kts 155°
2026-05-06 02:00 40.57081 -83.20253 32853 ft 523 kts 155°
2026-05-06 02:00 40.55011 -83.18472 32863 ft 527 kts 155°
2026-05-06 02:00 40.48802 -83.13135 32855 ft 539 kts 155°
2026-05-06 02:01 40.42478 -83.07709 32855 ft 545 kts 155°
2026-05-06 02:01 40.36067 -83.02215 32854 ft 548 kts 155°
2026-05-06 02:02 40.29640 -82.96722 32853 ft 548 kts 154°
2026-05-06 02:02 40.23244 -82.91268 32851 ft 549 kts 154°
2026-05-06 02:03 40.16831 -82.85813 32848 ft 550 kts 154°
2026-05-06 02:03 40.10375 -82.80335 32841 ft 552 kts 154°
2026-05-06 02:04 40.03895 -82.74850 32835 ft 552 kts 154°
2026-05-06 02:04 39.97431 -82.69389 32831 ft 553 kts 154°
2026-05-06 02:05 39.90937 -82.63917 32839 ft 553 kts 154°
2026-05-06 02:05 39.84500 -82.58504 32839 ft 552 kts 154°
2026-05-06 02:06 39.77968 -82.53026 32836 ft 552 kts 154°
2026-05-06 02:06 39.71546 -82.47649 32842 ft 546 kts 154°
2026-05-06 02:07 39.68316 -82.44950 32508 ft 550 kts 154°
2026-05-06 02:07 39.65091 -82.42255 31374 ft 549 kts 153°
2026-05-06 02:07 39.61921 -82.39551 29296 ft 551 kts 151°
2026-05-06 02:07 39.58823 -82.36770 26521 ft 552 kts 149°
2026-05-06 02:08 39.55673 -82.34158 24680 ft 524 kts 158°
2026-05-06 02:08 39.52554 -82.32031 24204 ft 488 kts 158°
2026-05-06 02:08 39.49580 -82.29979 23708 ft 462 kts 158°
2026-05-06 02:08 39.46783 -82.28058 23486 ft 460 kts 159°
2026-05-06 02:09 39.43881 -82.26077 23366 ft 472 kts 158°
2026-05-06 02:09 39.40945 -82.24065 23231 ft 476 kts 158°
2026-05-06 02:09 39.38033 -82.22064 23108 ft 474 kts 158°
2026-05-06 02:09 39.35162 -82.20083 22991 ft 454 kts 158°
2026-05-06 02:10 39.32429 -82.18195 22870 ft 440 kts 159°
2026-05-06 02:10 39.29748 -82.16351 22655 ft 436 kts 158°
2026-05-06 02:10 39.27055 -82.14501 22147 ft 433 kts 159°
2026-05-06 02:10 39.24425 -82.12690 21603 ft 426 kts 158°
2026-05-06 02:11 39.21802 -82.10887 21058 ft 422 kts 159°
2026-05-06 02:11 39.19236 -82.09120 20494 ft 419 kts 158°
2026-05-06 02:11 39.16802 -82.06988 19854 ft 418 kts 147°
2026-05-06 02:11 39.14602 -82.04676 19222 ft 406 kts 147°
2026-05-06 02:12 39.12450 -82.02426 18573 ft 393 kts 147°
2026-05-06 02:12 39.10315 -82.00200 17981 ft 387 kts 147°
2026-05-06 02:12 39.08255 -81.98059 17418 ft 383 kts 147°
2026-05-06 02:12 39.06195 -81.95919 17071 ft 382 kts 147°
2026-05-06 02:13 39.04103 -81.93753 16482 ft 381 kts 147°
2026-05-06 02:13 39.02068 -81.91644 15999 ft 376 kts 147°
2026-05-06 02:13 39.00016 -81.89523 15479 ft 376 kts 147°
2026-05-06 02:13 38.98002 -81.87439 14984 ft 370 kts 147°
2026-05-06 02:14 38.96003 -81.85374 14500 ft 367 kts 147°
2026-05-06 02:14 38.93996 -81.83303 14018 ft 364 kts 147°
2026-05-06 02:14 38.92033 -81.81280 13532 ft 361 kts 147°
2026-05-06 02:14 38.90095 -81.79282 13055 ft 353 kts 147°
2026-05-06 02:15 38.88213 -81.77342 12595 ft 346 kts 147°
2026-05-06 02:15 38.86337 -81.75412 12144 ft 338 kts 148°
2026-05-06 02:15 38.84509 -81.73531 11714 ft 331 kts 148°
2026-05-06 02:15 38.82734 -81.71706 11283 ft 325 kts 148°
2026-05-06 02:16 38.80970 -81.69895 10860 ft 318 kts 148°
2026-05-06 02:16 38.79263 -81.68144 10407 ft 311 kts 148°
2026-05-06 02:16 38.77611 -81.66447 9898 ft 300 kts 149°
2026-05-06 02:16 38.76000 -81.64793 9389 ft 291 kts 149°
2026-05-06 02:17 38.74441 -81.63197 8903 ft 285 kts 149°
2026-05-06 02:17 38.72906 -81.61628 8397 ft 278 kts 149°
2026-05-06 02:17 38.71419 -81.60109 7990 ft 273 kts 149°
2026-05-06 02:17 38.69955 -81.58609 7837 ft 260 kts 150°
2026-05-06 02:18 38.68574 -81.57194 7728 ft 252 kts 149°
2026-05-06 02:18 38.67189 -81.55788 7477 ft 257 kts 150°
2026-05-06 02:18 38.65789 -81.54365 7145 ft 254 kts 150°
2026-05-06 02:18 38.64412 -81.52962 6819 ft 250 kts 149°
2026-05-06 02:19 38.63050 -81.51575 6495 ft 247 kts 149°
2026-05-06 02:19 38.61723 -81.50226 6170 ft 245 kts 150°
2026-05-06 02:19 38.60388 -81.48869 5842 ft 243 kts 149°
2026-05-06 02:19 38.59067 -81.47527 5527 ft 241 kts 149°
2026-05-06 02:20 38.56434 -81.44855 4892 ft 239 kts 148°
2026-05-06 02:20 38.55135 -81.43562 4576 ft 237 kts 150°
2026-05-06 02:20 38.53760 -81.42403 4263 ft 234 kts 153°
2026-05-06 02:21 38.52327 -81.41428 3937 ft 228 kts 168°
2026-05-06 02:21 38.50793 -81.41370 3574 ft 219 kts 195°
2026-05-06 02:21 38.49476 -81.42264 3257 ft 215 kts 220°
2026-05-06 02:21 38.48469 -81.43623 3086 ft 206 kts 226°
2026-05-06 02:22 38.47562 -81.44941 3036 ft 191 kts 226°
2026-05-06 02:22 38.46732 -81.46143 3042 ft 169 kts 226°
2026-05-06 02:22 38.45993 -81.47216 3045 ft 148 kts 225°
2026-05-06 02:22 38.45351 -81.48149 2944 ft 135 kts 226°
2026-05-06 02:23 38.44753 -81.49014 2785 ft 124 kts 226°
2026-05-06 02:23 38.44181 -81.49841 2645 ft 128 kts 225°
2026-05-06 02:23 38.43596 -81.50684 2477 ft 124 kts 226°
2026-05-06 02:23 38.43023 -81.51513 2308 ft 126 kts 226°
2026-05-06 02:24 38.42445 -81.52350 2155 ft 128 kts 227°
2026-05-06 02:24 38.41837 -81.53230 2026 ft 131 kts 227°
2026-05-06 02:24 38.41249 -81.54105 1820 ft 134 kts 227°
2026-05-06 02:24 38.40620 -81.55002 1672 ft 134 kts 227°
2026-05-06 02:25 38.39996 -81.55898 1467 ft 133 kts 227°
2026-05-06 02:25 38.39382 -81.56786 1294 ft 133 kts 228°
2026-05-06 02:25 38.38765 -81.57682 1082 ft 137 kts 227°
2026-05-06 02:25 38.38130 -81.58562 894 ft 134 kts 227°
2026-05-06 02:26 38.37583 -81.59312 932 ft 83 kts 227°
2026-05-06 02:26 38.37384 -81.59585 938 ft 15 kts 227°
2026-05-06 02:26 38.37313 -81.59573 938 ft 12 kts 143°
2026-05-06 02:26 38.37344 -81.59473 938 ft 16 kts 47°
2026-05-06 02:27 38.37431 -81.59354 936 ft 20 kts 47°
2026-05-06 02:27 38.37510 -81.59247 932 ft 10 kts 49°
2026-05-06 02:27 38.37527 -81.59184 931 ft 8 kts 141°
2026-05-06 02:27 38.37472 -81.59184 932 ft 9 kts 220°
2026-05-06 02:28 38.37413 -81.59199 935 ft 11 kts 135°
2026-05-06 02:28 38.37385 -81.59128 935 ft 0 kts 34°
2026-05-06 02:28 38.37382 -81.59106 935 ft 0 kts 173°
2026-05-06 02:28 38.37374 -81.59113 935 ft 1 kts 249°